SCP
0 0 0 0 0 0 0 0 0 0 0 0 0 0 0 0 0 0 0 0 0 0 0 0 0 0 0 0 0 0 0 0 0 0 0 0 0 1 1 1 1 1 1
0 0 0 0 0 0 0 0 0 0 0 0 0 0 0 0 0 0 0 0 0 0 0 0 0 0 0 0 0 0 0 0 0 1 0 0 0 0 1 1 1 1 1
0 0 0 0 0 0 0 1 1 1 1 1 0 0 0 0 0 0 0 0 0 0 0 0 0 0 0 0 0 0 0 0 0 0 1 0 0 0 1 0 1 1 1
0 0 0 0 0 0 0 0 0 0 0 0 0 0 0 0 0 0 0 0 0 0 0 0 0 0 0 0 0 0 0 0 0 0 0 1 1 1 0 0 1 1 1
0 0 0 0 0 0 0 0 0 0 0 0 0 0 0 0 0 0 0 0 0 0 0 0 0 0 0 0 0 0 0 0 0 0 0 0 0 0 0 0 0 0 0
0 0 0 0 0 0 0 0 0 0 0 0 0 0 0 0 0 0 0 0 0 0 0 0 0 0 0 0 0 0 0 0 0 0 0 0 0 0 0 0 0 0 0
0 0 0 0 0 0 0 0 0 0 0 0 0 0 0 0 0 0 0 0 0 0 1 0 0 0 0 0 0 0 0 0 0 0 0 0 0 0 0 0 0 0 0
0 0 0 0 0 0 0 0 0 0 0 0 0 0 0 0 0 0 0 0 0 0 0 0 1 1 0 0 0 0 0 0 0 0 0 0 0 0 0 0 0 0 0
0 0 0 0 0 0 0 0 0 0 0 0 0 0 0 0 0 0 0 0 0 0 0 0 1 1 1 1 0 0 0 0 0 0 0 0 0 0 0 0 0 0 0
0 0 0 0 0 0 0 0 0 0 0 0 0 0 0 0 0 0 0 0 0 0 0 0 0 1 1 1 0 0 0 0 0 0 0 0 0 0 0 0 0 0 1
0 0 0 0 0 0 0 0 0 0 0 0 0 0 0 0 0 0 0 0 0 0 0 0 0 1 1 0 0 0 0 0 0 0 0 0 0 0 0 0 0 0 0
0 0 0 0 0 0 0 0 0 0 0 0 0 0 0 0 0 0 0 0 0 0 0 0 0 0 0 0 0 0 0 0 0 0 0 0 0 0 -0 0 0 0 0
0 0 0 0 0 0 0 0 0 0 0 0 0 0 0 0 0 0 0 0 0 0 0 0 0 0 0 0 0 0 0 0 0 0 0 0 0 0 0 0 0 0 1
0 0 0 0 0 -0 -0 -0 0 0 0 0 0 0 0 0 0 0 0 0 0 0 0 0 0 0 0 0 0 0 0 0 0 0 0 0 0 0 0 0 0 1 1
0 0 0 -0 -0 -0 0 0 0 0 0 0 0 0 0 0 0 0 0 0 0 0 0 0 0 0 0 0 0 0 0 0 0 0 0 0 0 0 0 0 0 1 0
0 -0 -0 -0 -0 -0 0 0 0 0 0 0 0 0 0 0 0 0 0 0 0 0 0 0 0 0 0 0 0 0 0 0 0 0 0 0 0 0 0 0 0 0 0
0 -0 -0 -0 0 0 0 0 0 0 0 0 0 0 0 0 0 0 0 0 0 0 0 0 0 0 -0 0 0 0 0 0 0 0 0 0 0 0 0 0 0 0 0
-0 -0 -0 0 0 0 0 0 0 0 0 0 0 0 0 0 0 0 0 0 0 0 0 0 0 -0 -0 -0 0 0 0 -0 0 0 0 0 0 0 0 0 0 0 0
-0 -0 0 0 0 0 0 0 0 0 0 0 0 0 0 0 0 0 0 0 0 0 0 -0 -0 -0 -0 -0 -0 -0 0 -0 0 0 0 0 0 0 0 0 0 0 0
0 0 0 0 0 0 0 0 0 0 0 0 0 0 0 0 0 0 0 0 0 -0 -0 -0 -0 -0 -0 -0 -0 0 0 0 0 0 0 0 0 0 0 0 0 0 0
0 0 0 0 0 0 0 0 0 0 0 0 0 -0 -0 0 -0 -0 0 -0 -0 -0 -0 -0 -0 -0 -0 -0 -0 -0 0 0 0 0 0 0 0 0 0 0 0 0 0
0 0 0 0 0 0 0 0 0 0 0 -0 -0 -0 0 0 0 0 -0 -0 -0 -0 -0 -0 -0 -0 -0 0 0 -0 -0 0 0 0 0 0 0 0 -0 0 0 0 0
0 0 0 0 0 0 0 0 0 0 0 -0 -0 -0 -0 0 -0 -0 -0 0 0 -0 -0 -0 -0 0 0 0 0 0 0 -0 0 0 0 0 0 -0 0 -0 -0 0 0
0 0 0 0 0 0 0 0 0 0 0 0 0 -0 -0 -0 0 0 0 0 0 0 0 0 0 0 0 0 0 0 0 -0 0 -0 0 0 0 0 0 0 0 0 0
0 0 0 0 0 0 0 0 0 0 0 0 0 0 0 0 0 0 0 0 0 0 0 0 0 0 0 0 0 0 0 0 0 -0 0 0 0 0 0 0 0 0 0
0 0 0 0 0 0 0 0 0 0 0 0 0 0 0 0 0 0 0 0 0 0 0 0 0 0 0 0 0 -0 -0 0 -0 0 0 0 0 0 0 0 0 0 0
Wind_Speed_500mb
32 33 30 24 16 7 6 15 16 18 17 9 9 8 7 7 6 9 14 17 16 19 25 17 28 28 26 30 30 29 25 21 21 29 32 38 41 44 41 35 38 34 32
32 31 29 27 23 16 12 9 3 4 4 7 11 12 11 13 13 16 24 23 25 27 27 30 27 31 24 35 35 34 24 22 17 19 28 37 35 34 29 25 27 24 23
28 29 28 26 21 18 13 8 2 5 8 15 11 15 19 23 23 23 24 27 29 37 41 41 38 39 39 21 37 27 28 20 22 18 16 23 33 31 17 22 17 24 24
21 21 22 23 24 22 21 19 20 24 26 27 27 30 28 29 34 37 38 40 40 44 45 49 46 45 33 35 30 33 28 22 22 22 16 22 27 24 36 29 22 23 31
18 20 20 20 20 21 23 24 25 27 29 31 36 37 41 49 48 42 44 46 51 48 48 45 47 51 45 39 37 31 29 20 19 22 23 24 26 27 32 42 40 16 36
17 18 21 23 25 27 30 33 35 35 33 31 35 42 52 55 65 66 74 55 50 47 43 44 47 47 43 41 32 31 26 25 25 19 21 23 27 29 30 32 37 40 42
18 22 27 32 36 40 43 44 44 45 45 46 44 43 44 51 54 44 46 48 48 46 44 44 47 48 48 45 46 40 34 28 24 29 22 24 25 30 34 39 40 40 36
28 33 39 42 45 47 48 48 45 47 45 47 49 49 51 52 54 54 52 54 56 54 50 47 52 52 50 45 47 47 35 34 33 33 33 28 29 30 34 39 39 40 37
36 41 44 46 48 50 50 51 53 55 55 55 56 55 55 56 58 59 61 62 63 59 53 49 52 54 54 49 43 42 34 40 45 40 38 32 32 33 35 40 38 41 43
43 48 48 52 54 52 52 53 56 58 59 59 59 59 59 61 65 68 72 68 64 60 58 56 58 57 58 50 43 41 37 41 42 40 42 47 40 39 37 41 37 39 47
50 51 57 57 58 58 58 60 61 61 63 63 62 60 62 66 67 69 65 61 62 63 65 64 62 62 55 49 45 41 42 42 42 46 49 54 51 44 39 40 38 40 44
52 57 61 63 63 64 65 67 66 67 65 63 61 64 71 65 67 58 60 60 62 60 61 55 63 73 65 60 52 46 47 46 46 44 46 53 51 47 42 39 39 40 42
61 63 64 66 67 69 72 73 72 68 67 60 55 53 53 54 60 57 53 49 50 53 57 53 60 60 64 63 54 51 51 52 52 50 49 50 48 49 42 40 40 37 44
66 67 68 69 74 80 78 73 68 61 56 51 52 56 57 57 56 59 55 56 52 55 55 55 60 63 56 55 59 59 56 57 56 53 52 51 49 47 43 41 36 35 38
68 70 74 81 87 81 70 63 55 50 53 57 60 65 63 61 59 56 57 54 53 51 56 55 54 59 63 60 57 57 59 58 55 53 52 50 50 51 46 41 37 37 47
73 78 86 88 82 72 65 57 57 61 60 65 71 61 62 62 56 56 57 56 56 54 55 56 53 53 54 54 56 55 52 47 48 49 48 49 52 48 51 53 51 35 52
81 85 88 83 72 63 61 77 70 67 68 66 64 58 60 55 54 54 53 55 55 50 54 55 52 50 51 55 56 55 51 49 50 50 49 50 40 38 43 46 48 58 50
80 86 83 75 65 65 76 73 70 67 61 60 59 57 54 51 55 52 51 52 48 51 49 49 49 47 43 47 51 57 54 54 54 53 53 49 43 43 39 34 40 47 54
78 81 74 66 72 75 73 70 66 62 57 60 54 52 51 50 50 52 47 46 45 45 42 41 42 45 47 47 51 53 52 50 51 48 46 48 45 38 34 37 40 42 46
78 74 65 69 74 73 69 65 63 62 57 57 52 50 47 45 45 43 42 44 39 38 34 36 39 41 42 40 43 47 41 45 43 44 45 41 42 41 36 42 42 46 47
77 67 63 73 73 71 62 58 58 54 52 47 45 41 39 38 37 40 41 40 40 38 33 33 34 36 36 36 38 41 48 51 48 46 43 39 41 42 46 50 43 43 45
73 57 71 74 71 61 55 60 57 53 46 44 39 34 33 31 33 36 41 36 35 37 36 32 29 27 25 26 28 34 45 47 47 44 35 31 33 46 57 60 36 35 48
57 65 69 71 66 56 58 61 55 49 46 39 34 33 25 26 32 26 26 25 26 25 19 20 18 16 15 14 7 9 12 19 23 25 26 26 41 51 48 62 23 31 69
53 64 65 67 66 59 55 51 45 44 32 30 27 27 25 25 22 23 27 20 19 15 14 12 9 5 5 12 13 13 14 18 25 28 28 35 45 54 57 60 53 55 81
59 59 62 60 62 57 50 48 40 38 30 23 24 28 20 26 20 24 23 20 16 11 9 7 8 11 16 16 23 22 32 37 39 45 46 46 55 69 88 86 94 99 99
56 59 59 57 57 52 45 44 38 35 24 19 32 28 28 27 22 22 19 21 16 12 13 19 18 16 14 19 19 19 33 33 35 52 64 85 89 95 94 99 103 110 105
Wind_Direction_500mb
39 37 38 39 42 49 252 225 228 226 219 209 211 243 234 245 257 268 288 307 305 309 316 320 319 319 317 315 306 300 301 297 290 289 285 279 267 262 265 269 274 268 272
42 39 42 42 44 47 48 49 42 265 276 289 265 249 254 258 255 269 279 289 294 299 302 302 303 304 308 309 309 309 303 295 291 291 284 284 280 258 264 268 270 263 265
40 37 34 34 32 25 21 17 323 251 275 251 291 283 275 277 286 284 288 288 283 295 294 295 293 295 297 294 306 306 310 296 286 283 281 285 282 306 269 281 257 272 282
24 25 22 19 18 21 13 5 332 316 312 301 290 282 284 283 278 282 286 282 285 283 281 282 278 282 278 280 283 291 300 304 293 282 270 265 272 288 287 283 272 282 277
2 358 359 356 356 358 350 346 342 331 321 312 297 288 281 277 279 285 288 291 290 284 274 262 257 265 268 266 265 275 283 291 291 292 283 275 280 284 277 279 280 273 301
339 337 336 334 330 331 329 324 320 313 308 305 300 295 291 287 286 285 284 287 286 280 275 269 256 249 242 246 253 259 276 277 282 290 295 283 276 271 274 282 280 285 285
325 324 320 318 314 315 315 315 308 303 298 294 287 282 282 281 285 287 284 282 281 281 278 272 259 250 247 239 250 258 261 276 278 289 290 292 285 275 271 274 278 279 276
321 316 312 310 309 308 310 311 309 307 303 295 288 280 278 283 281 284 281 278 279 280 279 271 266 252 243 239 241 249 256 254 275 285 294 295 294 286 273 269 273 278 275
313 312 312 310 307 305 304 304 304 302 300 295 290 285 279 280 283 285 285 283 279 275 274 272 268 255 241 237 237 243 251 256 264 275 293 293 296 291 280 266 256 265 269
311 311 311 310 307 303 302 302 300 300 299 297 291 287 281 279 283 285 285 284 278 276 274 268 265 255 242 232 236 243 252 257 261 267 277 288 293 293 280 267 262 256 261
312 312 312 310 307 304 302 302 301 300 299 296 292 287 284 283 285 286 285 280 278 277 274 268 258 254 242 233 239 240 244 251 261 268 275 282 290 288 276 264 257 256 257
310 311 313 312 310 306 304 303 302 299 297 295 289 288 287 286 285 284 285 282 281 277 274 266 256 248 246 244 244 247 249 253 256 262 267 275 281 278 271 261 251 248 253
313 316 315 314 312 310 307 303 301 299 297 294 291 289 289 288 286 285 288 287 284 281 269 268 258 252 245 244 248 251 252 254 255 257 259 264 268 267 260 250 245 246 251
317 318 318 316 314 312 307 303 301 299 294 295 292 289 287 287 286 283 284 287 287 276 272 268 260 250 248 256 255 255 255 254 255 257 260 261 259 254 248 244 247 237 240
319 319 319 318 317 313 309 306 304 299 297 294 292 293 296 296 293 285 288 290 287 275 272 267 263 260 261 256 255 252 251 250 250 253 257 256 251 241 238 229 232 236 234
319 317 318 318 317 313 309 307 303 302 301 294 300 297 298 300 295 292 289 283 285 274 270 268 262 261 256 252 254 251 244 244 247 252 256 254 250 244 236 229 223 209 237
321 319 318 319 317 312 308 311 314 312 307 305 304 301 301 299 297 292 286 282 285 279 271 269 267 259 256 251 252 250 242 246 251 253 253 251 247 247 236 234 231 221 234
320 319 319 317 313 310 317 318 317 315 312 312 310 307 305 298 298 296 292 292 288 284 279 268 267 266 260 257 249 248 252 254 253 250 247 242 240 230 230 236 224 225 224
320 319 316 314 311 321 322 320 318 318 313 316 314 308 307 303 298 297 298 296 292 288 279 270 262 262 263 257 259 258 256 251 249 244 239 235 236 224 221 220 222 221 209
323 321 316 314 325 326 327 323 320 319 317 321 318 312 304 297 296 297 297 303 295 291 289 277 272 267 264 259 252 247 241 244 243 241 243 236 232 221 220 207 210 188 191
324 322 318 328 328 330 329 327 328 325 324 318 319 312 304 302 298 299 302 304 302 298 282 272 272 270 264 259 251 243 242 243 243 245 245 237 227 228 198 198 184 186 182
325 324 333 336 338 340 339 335 333 334 333 329 323 319 318 308 309 308 314 308 297 288 291 289 287 283 276 266 254 236 233 237 243 246 239 220 197 197 185 183 172 182 189
323 329 339 338 341 345 344 339 337 333 322 327 328 326 326 322 314 316 321 315 316 309 298 293 298 300 291 284 232 193 195 188 185 191 208 191 189 183 188 188 194 180 185
323 338 341 341 342 347 343 343 342 346 340 341 344 348 333 341 346 345 338 325 332 319 313 315 318 336 87 108 103 99 132 152 163 159 154 154 149 163 180 191 189 156 158
331 340 344 343 343 343 346 352 353 352 354 358 349 351 350 344 350 351 5 8 15 10 2 25 73 99 121 111 108 100 114 119 132 137 130 130 138 140 139 138 144 141 135
336 340 342 343 344 345 347 354 358 2 4 6 353 3 8 4 1 4 22 27 35 49 67 72 81 86 119 147 140 128 129 121 135 143 138 136 139 139 139 136 134 136 135
Wind_Speed_850mb
32 33 30 24 16 7 6 15 16 18 17 9 9 8 7 7 6 9 14 17 16 19 25 17 28 28 26 30 30 29 25 21 21 29 32 38 41 44 41 35 38 34 32
32 31 29 27 23 16 12 9 3 4 4 7 11 12 11 13 13 16 24 23 25 27 27 30 27 31 24 35 35 34 24 22 17 19 28 37 35 34 29 25 27 24 23
28 29 28 26 21 18 13 8 2 5 8 15 11 15 19 23 23 23 24 27 29 37 41 41 38 39 39 21 37 27 28 20 22 18 16 23 33 31 17 22 17 24 24
21 21 22 23 24 22 21 19 20 24 26 27 27 30 28 29 34 37 38 40 40 44 45 49 46 45 33 35 30 33 28 22 22 22 16 22 27 24 36 29 22 23 31
18 20 20 20 20 21 23 24 25 27 29 31 36 37 41 49 48 42 44 46 51 48 48 45 47 51 45 39 37 31 29 20 19 22 23 24 26 27 32 42 40 16 36
17 18 21 23 25 27 30 33 35 35 33 31 35 42 52 55 65 66 74 55 50 47 43 44 47 47 43 41 32 31 26 25 25 19 21 23 27 29 30 32 37 40 42
18 22 27 32 36 40 43 44 44 45 45 46 44 43 44 51 54 44 46 48 48 46 44 44 47 48 48 45 46 40 34 28 24 29 22 24 25 30 34 39 40 40 36
28 33 39 42 45 47 48 48 45 47 45 47 49 49 51 52 54 54 52 54 56 54 50 47 52 52 50 45 47 47 35 34 33 33 33 28 29 30 34 39 39 40 37
36 41 44 46 48 50 50 51 53 55 55 55 56 55 55 56 58 59 61 62 63 59 53 49 52 54 54 49 43 42 34 40 45 40 38 32 32 33 35 40 38 41 43
43 48 48 52 54 52 52 53 56 58 59 59 59 59 59 61 65 68 72 68 64 60 58 56 58 57 58 50 43 41 37 41 42 40 42 47 40 39 37 41 37 39 47
50 51 57 57 58 58 58 60 61 61 63 63 62 60 62 66 67 69 65 61 62 63 65 64 62 62 55 49 45 41 42 42 42 46 49 54 51 44 39 40 38 40 44
52 57 61 63 63 64 65 67 66 67 65 63 61 64 71 65 67 58 60 60 62 60 61 55 63 73 65 60 52 46 47 46 46 44 46 53 51 47 42 39 39 40 42
61 63 64 66 67 69 72 73 72 68 67 60 55 53 53 54 60 57 53 49 50 53 57 53 60 60 64 63 54 51 51 52 52 50 49 50 48 49 42 40 40 37 44
66 67 68 69 74 80 78 73 68 61 56 51 52 56 57 57 56 59 55 56 52 55 55 55 60 63 56 55 59 59 56 57 56 53 52 51 49 47 43 41 36 35 38
68 70 74 81 87 81 70 63 55 50 53 57 60 65 63 61 59 56 57 54 53 51 56 55 54 59 63 60 57 57 59 58 55 53 52 50 50 51 46 41 37 37 47
73 78 86 88 82 72 65 57 57 61 60 65 71 61 62 62 56 56 57 56 56 54 55 56 53 53 54 54 56 55 52 47 48 49 48 49 52 48 51 53 51 35 52
81 85 88 83 72 63 61 77 70 67 68 66 64 58 60 55 54 54 53 55 55 50 54 55 52 50 51 55 56 55 51 49 50 50 49 50 40 38 43 46 48 58 50
80 86 83 75 65 65 76 73 70 67 61 60 59 57 54 51 55 52 51 52 48 51 49 49 49 47 43 47 51 57 54 54 54 53 53 49 43 43 39 34 40 47 54
78 81 74 66 72 75 73 70 66 62 57 60 54 52 51 50 50 52 47 46 45 45 42 41 42 45 47 47 51 53 52 50 51 48 46 48 45 38 34 37 40 42 46
78 74 65 69 74 73 69 65 63 62 57 57 52 50 47 45 45 43 42 44 39 38 34 36 39 41 42 40 43 47 41 45 43 44 45 41 42 41 36 42 42 46 47
77 67 63 73 73 71 62 58 58 54 52 47 45 41 39 38 37 40 41 40 40 38 33 33 34 36 36 36 38 41 48 51 48 46 43 39 41 42 46 50 43 43 45
73 57 71 74 71 61 55 60 57 53 46 44 39 34 33 31 33 36 41 36 35 37 36 32 29 27 25 26 28 34 45 47 47 44 35 31 33 46 57 60 36 35 48
57 65 69 71 66 56 58 61 55 49 46 39 34 33 25 26 32 26 26 25 26 25 19 20 18 16 15 14 7 9 12 19 23 25 26 26 41 51 48 62 23 31 69
53 64 65 67 66 59 55 51 45 44 32 30 27 27 25 25 22 23 27 20 19 15 14 12 9 5 5 12 13 13 14 18 25 28 28 35 45 54 57 60 53 55 81
59 59 62 60 62 57 50 48 40 38 30 23 24 28 20 26 20 24 23 20 16 11 9 7 8 11 16 16 23 22 32 37 39 45 46 46 55 69 88 86 94 99 99
56 59 59 57 57 52 45 44 38 35 24 19 32 28 28 27 22 22 19 21 16 12 13 19 18 16 14 19 19 19 33 33 35 52 64 85 89 95 94 99 103 110 105
Wind_Direction_850mb
39 37 38 39 42 49 252 225 228 226 219 209 211 243 234 245 257 268 288 307 305 309 316 320 319 319 317 315 306 300 301 297 290 289 285 279 267 262 265 269 274 268 272
42 39 42 42 44 47 48 49 42 265 276 289 265 249 254 258 255 269 279 289 294 299 302 302 303 304 308 309 309 309 303 295 291 291 284 284 280 258 264 268 270 263 265
40 37 34 34 32 25 21 17 323 251 275 251 291 283 275 277 286 284 288 288 283 295 294 295 293 295 297 294 306 306 310 296 286 283 281 285 282 306 269 281 257 272 282
24 25 22 19 18 21 13 5 332 316 312 301 290 282 284 283 278 282 286 282 285 283 281 282 278 282 278 280 283 291 300 304 293 282 270 265 272 288 287 283 272 282 277
2 358 359 356 356 358 350 346 342 331 321 312 297 288 281 277 279 285 288 291 290 284 274 262 257 265 268 266 265 275 283 291 291 292 283 275 280 284 277 279 280 273 301
339 337 336 334 330 331 329 324 320 313 308 305 300 295 291 287 286 285 284 287 286 280 275 269 256 249 242 246 253 259 276 277 282 290 295 283 276 271 274 282 280 285 285
325 324 320 318 314 315 315 315 308 303 298 294 287 282 282 281 285 287 284 282 281 281 278 272 259 250 247 239 250 258 261 276 278 289 290 292 285 275 271 274 278 279 276
321 316 312 310 309 308 310 311 309 307 303 295 288 280 278 283 281 284 281 278 279 280 279 271 266 252 243 239 241 249 256 254 275 285 294 295 294 286 273 269 273 278 275
313 312 312 310 307 305 304 304 304 302 300 295 290 285 279 280 283 285 285 283 279 275 274 272 268 255 241 237 237 243 251 256 264 275 293 293 296 291 280 266 256 265 269
311 311 311 310 307 303 302 302 300 300 299 297 291 287 281 279 283 285 285 284 278 276 274 268 265 255 242 232 236 243 252 257 261 267 277 288 293 293 280 267 262 256 261
312 312 312 310 307 304 302 302 301 300 299 296 292 287 284 283 285 286 285 280 278 277 274 268 258 254 242 233 239 240 244 251 261 268 275 282 290 288 276 264 257 256 257
310 311 313 312 310 306 304 303 302 299 297 295 289 288 287 286 285 284 285 282 281 277 274 266 256 248 246 244 244 247 249 253 256 262 267 275 281 278 271 261 251 248 253
313 316 315 314 312 310 307 303 301 299 297 294 291 289 289 288 286 285 288 287 284 281 269 268 258 252 245 244 248 251 252 254 255 257 259 264 268 267 260 250 245 246 251
317 318 318 316 314 312 307 303 301 299 294 295 292 289 287 287 286 283 284 287 287 276 272 268 260 250 248 256 255 255 255 254 255 257 260 261 259 254 248 244 247 237 240
319 319 319 318 317 313 309 306 304 299 297 294 292 293 296 296 293 285 288 290 287 275 272 267 263 260 261 256 255 252 251 250 250 253 257 256 251 241 238 229 232 236 234
319 317 318 318 317 313 309 307 303 302 301 294 300 297 298 300 295 292 289 283 285 274 270 268 262 261 256 252 254 251 244 244 247 252 256 254 250 244 236 229 223 209 237
321 319 318 319 317 312 308 311 314 312 307 305 304 301 301 299 297 292 286 282 285 279 271 269 267 259 256 251 252 250 242 246 251 253 253 251 247 247 236 234 231 221 234
320 319 319 317 313 310 317 318 317 315 312 312 310 307 305 298 298 296 292 292 288 284 279 268 267 266 260 257 249 248 252 254 253 250 247 242 240 230 230 236 224 225 224
320 319 316 314 311 321 322 320 318 318 313 316 314 308 307 303 298 297 298 296 292 288 279 270 262 262 263 257 259 258 256 251 249 244 239 235 236 224 221 220 222 221 209
323 321 316 314 325 326 327 323 320 319 317 321 318 312 304 297 296 297 297 303 295 291 289 277 272 267 264 259 252 247 241 244 243 241 243 236 232 221 220 207 210 188 191
324 322 318 328 328 330 329 327 328 325 324 318 319 312 304 302 298 299 302 304 302 298 282 272 272 270 264 259 251 243 242 243 243 245 245 237 227 228 198 198 184 186 182
325 324 333 336 338 340 339 335 333 334 333 329 323 319 318 308 309 308 314 308 297 288 291 289 287 283 276 266 254 236 233 237 243 246 239 220 197 197 185 183 172 182 189
323 329 339 338 341 345 344 339 337 333 322 327 328 326 326 322 314 316 321 315 316 309 298 293 298 300 291 284 232 193 195 188 185 191 208 191 189 183 188 188 194 180 185
323 338 341 341 342 347 343 343 342 346 340 341 344 348 333 341 346 345 338 325 332 319 313 315 318 336 87 108 103 99 132 152 163 159 154 154 149 163 180 191 189 156 158
331 340 344 343 343 343 346 352 353 352 354 358 349 351 350 344 350 351 5 8 15 10 2 25 73 99 121 111 108 100 114 119 132 137 130 130 138 140 139 138 144 141 135
336 340 342 343 344 345 347 354 358 2 4 6 353 3 8 4 1 4 22 27 35 49 67 72 81 86 119 147 140 128 129 121 135 143 138 136 139 139 139 136 134 136 135